User: anonymous   Login
Location: Unspecified
(28.4977°N, 82.5293°W)
Time: 13:26:16
(UTC-04:00)
Language:

SL-4 ROCKET BODY - Orbit

View from above orbital plane
View from above orbital plane
View from above satellite
View from above satellite

Ground track
Ground track

The orbit data is extracted from the following two-line orbital elements,

1 41178U 15080B   15356.94629905  .16598561  12654-4  29462-3 0  9998
2 41178  51.6470 221.8870 0005456  59.0998 302.1300 16.47436400   266
Epoch (UTC): 22 December 2015 22:42:40
Eccentricity: 0.0005456
inclination: 51.6470°
perigee height: 142 km
apogee height: 149 km
right ascension of ascending node: 221.8870°
argument of perigee: 59.0998°
revolutions per day: 16.47436400
mean anomaly at epoch: 302.1300°
orbit number at epoch: 26

The dashed part of the orbit path shows where the satellite is in the earth's shadow,  

DLR